Погода в Куралово

Россия / Республика Татарстан     55°38′37″N   48°44′15″E
темп.,
°C
ветер,
м/с
пор.,
м/с
влажн.,
%
обл.,
%
осадки,
мм/ч
давл.,
гПа
погр.,
м
6 марта, сб
сб600:00−12юз339521 0.0 100843
03:00−11зюз489660 0.1 1010179
06:00−11зсз489699 0.2 1011253
09:00−12сз4694100 0.3 1013356
12:00−10з4689100 0.0 1014588
15:00−10з4689100 0.1 1013542
18:00−14зюз229483 0.0 101421
21:00−13юз239691 0.1 101450
7 марта, вс
вс700:00−15зюз239796 0.1 101227
03:00−17юз229888 0.1 101220
06:00−18юз2210085 0.0 101120
09:00−13ююз239590 0.1 1010170
12:00−10ююз359396 0.0 1008298
15:00−9ю589295 0.1 1006465
18:00−9ююв51391100 0.0 1003453
21:00−7ю81493100 0.6 1000797
8 марта, пн
пн800:00−7ю81494100 0.9 996776
03:00−5юз71294100 2.4 994740
06:00−11юз6138833 0.1 995311
09:00−10юз6118833 0.1 997383
12:00−6юз6117985 0.0 997728
15:00−5ю6108092 0.0 996686
18:00−8юв3387100 0.0 99447
21:00−9ссз3495100 1.2 99474
9 марта, вт
вт900:00−10зсз4996100 0.1 995253
03:00−10з61293100 0.4 998416
06:00−11зсз71292100 0.1 1001510
09:00−12зсз6992100 0.2 1005533
12:00−11з6889100 0.1 1007639
15:00−11з5789100 0.1 1009697
18:00−13з4895100 0.1 1010232
21:00−14сз2296100 0.4 101235
10 марта, ср
ср1000:00−16зсз359799 0.1 1012104
03:00−16зсз359799 0.1 1013128
06:00−18сз379885 0.1 1014165
09:00−17сз479490 0.1 1015365
12:00−15сз4589100 0.1 1017594
15:00−15сз4689100 0.1 1017727
18:00−19ссз3596100 0.1 101997
21:00−24ссз239567 0.1 102120